Location: Caltech
(34.1382°N, 118.1253°W)
Time: 02:28:08
(UTC-07:00)

OAO 2 Rocket - Visible Passes

Search period start: 26 October 2014 00:00
Search period end: 04 November 2014 23:00
Orbit: 678 x 749 km, 35.0° (Epoch: 25 October)

Date Brightness Start Highest point End Pass type
(mag) Time Alt. Az. Time Alt. Az. Time Alt. Az.
26 Oct 6.3 03:42:22 12° E 03:42:22 12° E 03:42:40 10° E visible
26 Oct 3.3 05:21:22 58° W 05:22:25 85° N 05:27:42 10° E visible
27 Oct 4.8 04:27:28 35° E 04:27:28 35° E 04:30:28 10° E visible
27 Oct 3.4 06:06:29 19° W 06:10:12 83° N 06:15:30 10° E visible
28 Oct 3.2 05:12:34 73° NW 05:12:59 80° N 05:18:14 10° E visible
29 Oct 5.3 04:18:39 27° E 04:18:39 27° E 04:20:59 10° E visible
29 Oct 3.4 05:57:40 25° W 06:00:45 86° SSW 06:06:01 10° ESE visible
30 Oct 3.3 05:03:45 81° ENE 05:03:45 81° ENE 05:08:47 10° E visible
31 Oct 5.7 04:09:52 21° E 04:09:52 21° E 04:11:31 10° E visible
31 Oct 3.5 05:48:53 32° W 05:51:13 66° SSW 05:56:24 10° ESE visible
01 Nov 3.8 04:55:01 59° ESE 04:55:01 59° ESE 04:59:16 10° ESE visible
01 Nov 4.4 06:34:04 10° W 06:38:40 33° SSW 06:43:20 10° SE visible
02 Nov 6.1 03:01:12 15° E 03:01:12 15° E 03:02:03 10° E visible
02 Nov 3.9 04:40:13 36° WSW 04:41:37 45° SSW 04:46:33 10° SE visible
03 Nov 4.6 03:46:26 36° SE 03:46:26 36° SE 03:49:36 10° ESE visible
03 Nov 5.0 05:25:27 11° WSW 05:28:54 20° SSW 05:32:39 10° SSE visible
04 Nov 4.4 04:31:42 29° SSW 04:31:55 29° SSW 04:36:19 10° SSE visible
